Weather History for Palm Springs, CA

Change the Weather History Date:

Friday, March 16, 2012

  Actual Average Record
Temperature  
Mean Temperature 71 °F 66 °F  
Max Temperature 85 °F 79 °F 100 °F (2007)
Min Temperature 56 °F 53 °F 35 °F (1956)
Degree Days  
Heating Degree Days 0 3  
Month to date heating degree days 24 48  
Since 1 July heating degree days 714 826  
Cooling Degree Days 6 3  
Month to date cooling degree days 26 37  
Year to date cooling degree days 73 64  
Growing Degree Days 20 (Base 50)    
Moisture  
Dew Point 43 °F    
Average Humidity 44    
Maximum Humidity 72    
Minimum Humidity 16    
Precipitation  
Precipitation 0.00 in 0.01 in 0.79 in (1958)
Month to date precipitation T 0.50  
Year to date precipitation 0.41 2.53  
Since 1 July precipitation 1.89 5.33  
Snow  
Snow 0.00 in - - ()
Month to date snowfall 0.0  
Year to date snowfall 0.0  
Since 1 July snowfall 0.0  
Snow Depth 0.00 in    
Sea Level Pressure  
Sea Level Pressure 29.84 in    
Wind  
Wind Speed 9 mph (NW)    
Max Wind Speed 26 mph    
Max Gust Speed 33 mph    
Visibility 10 miles    
Events      
T = Trace of Precipitation, MM = Missing Value Source: NWS Daily Summary

Daily Weather History Graph

Daily Weather History Graph

Search for Another Location

Airport:

Trip Planner

Search our weather history database for the weather conditions in past years. The results will help you decide how hot, cold, wet, or windy it might be!

Date:

Astronomy

Mar. 16, 2012 Rise Set
Actual Time 6:54 AM PDT 6:55 PM PDT
Civil Twilight 6:29 AM PDT 7:19 PM PDT
Nautical Twilight 6:00 AM PDT 7:48 PM PDT
Astronomical Twilight 5:31 AM PDT 8:18 PM PDT
Moon 3:01 AM PDT (3/16) 1:34 PM PDT (3/16)
Length of Visible Light 12h 50m
Length of Day
12h 00m
Waning Crescent, 32% of the Moon is Illuminated
Mar 16
Waning Crescent
Mar 22
New
Mar 30
First Quarter
Apr 6
Full
Apr 13
Last Quarter

Hourly Weather History & Observations

Time (PDT) Temp. Dew Point Humidity Pressure Visibility Wind Dir Wind Speed Gust Speed Precip Events Conditions
12:53 AM 64.0 °F 46.0 °F 52% 29.93 in 10.0 mi Calm Calm - N/A   Clear
1:53 AM 64.0 °F 46.9 °F 54% 29.91 in 10.0 mi SW 3.5 mph - N/A   Clear
2:53 AM 64.0 °F 46.0 °F 52% 29.90 in 10.0 mi North 3.5 mph - N/A   Clear
3:53 AM 61.0 °F 46.9 °F 60% 29.89 in 10.0 mi Calm Calm - N/A   Clear
4:53 AM 60.8 °F 46.4 °F 59% 29.89 in 10.0 mi Calm Calm - N/A   Clear
5:53 AM 59.0 °F 46.9 °F 64% 29.89 in 10.0 mi Calm Calm - N/A   Clear
6:53 AM 55.9 °F 46.0 °F 69% 29.89 in 10.0 mi SSW 3.5 mph - N/A   Clear
7:53 AM 59.0 °F 46.0 °F 62% 29.90 in 10.0 mi SW 3.5 mph - N/A   Clear
8:53 AM 66.9 °F 45.0 °F 45% 29.90 in 10.0 mi Calm Calm - N/A   Clear
9:53 AM 71.1 °F 45.0 °F 39% 29.90 in 10.0 mi Variable 3.5 mph - N/A   Clear
10:53 AM 75.0 °F 43.0 °F 32% 29.90 in 10.0 mi Calm Calm - N/A   Scattered Clouds
11:53 AM 78.1 °F 39.9 °F 25% 29.88 in 10.0 mi SSE 6.9 mph - N/A   Scattered Clouds
12:53 PM 82.0 °F 43.0 °F 25% 29.86 in 10.0 mi North 6.9 mph - N/A   Scattered Clouds
1:53 PM 81.0 °F 42.1 °F 25% 29.83 in 10.0 mi ENE 5.8 mph - N/A   Scattered Clouds
2:53 PM 84.0 °F 42.1 °F 23% 29.80 in 10.0 mi South 8.1 mph 16.1 mph N/A   Scattered Clouds
3:53 PM 82.0 °F 35.1 °F 18% 29.78 in 10.0 mi NNW 15.0 mph 24.2 mph N/A   Scattered Clouds
4:53 PM 82.9 °F 32.0 °F 16% 29.76 in 10.0 mi NW 8.1 mph 19.6 mph N/A   Scattered Clouds
5:53 PM 79.0 °F 34.0 °F 20% 29.75 in 10.0 mi NW 16.1 mph - N/A   Scattered Clouds
6:53 PM 73.9 °F 44.1 °F 34% 29.75 in 10.0 mi NNW 24.2 mph 33.4 mph N/A   Clear
7:53 PM 71.1 °F 43.0 °F 36% 29.76 in 10.0 mi NW 17.3 mph 21.9 mph N/A   Scattered Clouds
8:53 PM 70.0 °F 43.0 °F 38% 29.76 in 10.0 mi NNW 20.7 mph 25.3 mph N/A   Clear
9:53 PM 68.0 °F 44.1 °F 42% 29.76 in 10.0 mi NNW 15.0 mph - N/A   Clear
10:53 PM 66.0 °F 45.0 °F 47% 29.76 in 10.0 mi NW 13.8 mph 21.9 mph N/A   Clear
11:53 PM 64.9 °F 46.0 °F 50% 29.75 in 10.0 mi NW 17.3 mph - N/A   Clear